User: anonymous   Login
Location: Unspecified
(0.0000°N, 0.0000°E)
Time: 12:36:21
(UTC+02:00)
Language:

Hamsat - Orbit

View from above orbital plane
View from above orbital plane
View from above satellite
View from above satellite

Ground track
Ground track

The orbit data is extracted from the following two-line orbital elements,

1 28650U 05017B   17175.54873866 +.00000269 +00000-0 +34364-4 0  9993
2 28650 097.6512 149.6363 0025053 105.2353 255.1637 14.88676311657191
Epoch (UTC): 24 June 2017 13:10:11
Eccentricity: 0.0025053
inclination: 97.6512°
perigee height: 584 km
apogee height: 619 km
right ascension of ascending node: 149.6363°
argument of perigee: 105.2353°
revolutions per day: 14.88676311
mean anomaly at epoch: 255.1637°
orbit number at epoch: 65719

The dashed part of the orbit path shows where the satellite is in the earth's shadow,  

DLR